Regional Weather Roundup
Issued by NWS

Home | Current Version | Previous Version | Graphics & Text | Print | Product List | Glossary On
Versions: 1 2 3 4 5 6 7 8 9 10 11 12 13 14 15 16 17 18 19 20 21 22 23 24 25 26 27 28 29 30 31 32 33 34 35 36 37 38 39 40 41 42 43 44 45 46 47 48 49 50
000
ASUS45 KCYS 231610
RWRWY

WYOMING REGIONAL WEATHER ROUNDUP
NATIONAL WEATHER SERVICE CHEYENNE WY
1000 AM MDT SUN APR 23 2017

NOTE:  "FAIR" INDICATES FEW OR NO CLOUDS BELOW 12,000 FEET
WITH NO SIGNIFICANT WEATHER AND/OR OBSTRUCTIONS TO VISIBILITY.

WYZ001-231700-
YELLOWSTONE NATIONAL PARK

CITY           SKY/WX    TMP DP  RH WIND       PRES   REMARKS
LK YELLOWSTONE   N/A     33  30  88 CALM      29.94F
W YELLOWSTONE  NOT AVBL

$$
WYZ002>013-054>058-071-098>099-231700-
NORTHERN WYOMING

CITY           SKY/WX    TMP DP  RH WIND       PRES   REMARKS
JACKSON        PTSUNNY   41  28  60 S3        29.92F
CODY           FAIR      55  33  43 S12       29.80F
GREYBULL       FAIR      52  36  54 CALM      29.79F
WORLAND        FAIR      53  44  71 VRB5      29.80F
SHERIDAN       FAIR      54  42  64 N6        29.78F
BUFFALO        FAIR      58  29  33 SE7       29.82F
GILLETTE       FAIR      57  34  41 CALM      29.81F
HULETT         FAIR      55  34  44 SW8       29.82F
NEWCASTLE      FAIR      54  28  37 S6G20     29.86S

$$
WYZ014>020-022>026-101>103-231700-
CENTRAL WYOMING

CITY           SKY/WX    TMP DP  RH WIND       PRES   REMARKS
BIG PINEY      PTSUNNY   43  26  51 CALM      29.95F
PINEDALE       CLOUDY    45  27  49 E10       29.95F
DUBOIS         PTSUNNY   52  19  28 W15       29.86F
LANDER         FAIR      52  29  41 E5        29.83F
RIVERTON       FAIR      52  30  43 VRB3      29.85F
CASPER         FAIR      57  29  34 SW16      29.85F
DOUGLAS          N/A     56  30  37 N3        29.87F

$$
WYZ021-027>030-104>119-231700-
SOUTHERN WYOMING

CITY           SKY/WX    TMP DP  RH WIND       PRES   REMARKS
EVANSTON       FAIR      53  26  35 SW9       29.92F
KEMMERER         N/A     50  23  34 SW3       29.95S
FORT BRIDGER   FAIR      52  27  37 E6        29.96S
ROCK SPRINGS   FAIR      52  20  28 CALM      29.94F
DIXON            N/A     56  20  24 S18G24    30.01F
RAWLINS        FAIR      56  17  21 S28G33    29.94F
SARATOGA       FAIR      55  18  22 S14G20    29.97F
LARAMIE        FAIR      56  21  25 SW24G31   29.95F
CHEYENNE       FAIR      55  29  36 S15       29.95F
TORRINGTON     FAIR      57  37  47 SE10      29.88F
PINE BLUFFS    FAIR      50  36  57 SW10      29.95F

$$



USA.gov is the U.S. government's official web portal to all federal, state and local government web resources and services.